Regional Weather Roundup
Issued by NWS Green Bay, WI

Home | Current Version | Previous Version | Graphics & Text | Print | Product List | Glossary Off
Versions: 1 2 3 4 5 6 7 8 9 10 11 12 13 14 15 16 17 18 19 20 21 22 23 24 25 26 27 28 29 30 31 32 33 34 35 36 37 38 39 40 41 42 43 44 45 46 47 48 49 50

000
ASUS43 KGRB 220411
RWRGRB

NORTH-CENTRAL AND NORTHEAST WISCONSIN REGIONAL WEATHER ROUNDUP
NATIONAL WEATHER SERVICE GREEN BAY WI
1000 PM CST WED FEB 21 2018

WIZ005-009-010>012-018-019-220500-
NORTH CENTRAL WISCONSIN

CITY           SKY/WX    TMP DP  RH WIND       PRES   REMARKS
IRONWOOD       FAIR      11   5  77 SW6       30.60S WCI   1
MANITOWISH WTR FAIR      -1  -3  91 CALM      30.57F
ARBOR VITAE    FAIR       6   3  87 CALM      30.57F
EAGLE RIVER    FAIR       1  -3  83 CALM      30.58S
LAND O LAKES   FAIR      -4  -8  82 CALM      30.60R
RHINELANDER    FAIR       5   1  83 CALM      30.59S
PHILLIPS       FAIR       3   1  91 CALM      30.60S
ANTIGO         FAIR       5   2  88 CALM      30.61S
TOMAHAWK       FAIR       2  -1  88 CALM      30.61S
MERRILL        FAIR       4   1  88 CALM      30.63R
$$

WIZ013-073-220500-
NORTHEAST WISCONSIN

CITY           SKY/WX    TMP DP  RH WIND       PRES   REMARKS
IRON MOUNTAIN  FAIR       8   2  76 CALM      30.60S
MARINETTE      FAIR      18  11  74 NW3       30.68F
OCONTO         FAIR      20  11  68 NW5       30.67F
$$

WIZ017-030-035>037-045-220500-
CENTRAL WISCONSIN

CITY           SKY/WX    TMP DP  RH WIND       PRES   REMARKS
MEDFORD        FAIR       1  -2  85 CALM      30.61R
WAUSAU         FAIR       9   5  84 CALM      30.62S
MOSINEE        PTCLDY     9   3  78 CALM      30.63F
MARSHFIELD     FAIR      10   6  84 CALM      30.62R
WISC RAPIDS    FAIR      12   7  80 CALM      30.66S
STEVENS POINT  FAIR       8   6  91 CALM      30.65S
WAUPACA        FAIR      19  12  75 NW5       30.66S
SHAWANO        FAIR      18  10  71 CALM      30.67S
CLINTONVILLE   FAIR      18   7  63 CALM      30.66F
WAUTOMA        FAIR      17  11  77 CALM      30.66S
$$

WIZ038-039-048-051-220500-
FOX VALLEY

CITY           SKY/WX    TMP DP  RH WIND       PRES   REMARKS
NWS GREEN BAY  FAIR      21  11  65 NW3       30.67S
APPLETON       PTCLDY    18   9  68 CALM      30.63F
OSHKOSH        FAIR      20  10  65 N6        30.65S
FOND DU LAC    FAIR      22  10  60 N6        30.65F
$$

WIZ022-050-052-220500-
EAST CENTRAL WISCONSIN

CITY           SKY/WX    TMP DP  RH WIND       PRES   REMARKS
EPHRAIM        FAIR      19  10  69 W5        30.65S
WASHINGTON ISL FAIR      20  10  63 S3        30.66S
STURGEON BAY   FAIR      20  12  71 W7        30.66F
MANITOWOC      FAIR      22  14  71 NW6       30.66F
SHEBOYGAN      FAIR      22  13  68 N3        30.65F
$$

LMZ563-521-522-541>543-220500-
LAKESHORE

STATION/POSITION TIME  TEMP    WIND        PRES    VSBY  WAVE
                       AIR SEA DIR/SP/G                  HT/PER
                 (UTC) (F)     (DEG/KT/KT) (MB)    (MI)  (FT/S)
KEWAUNEE LKSHORE 0342   22     310/  4/  6 1037.3F
MENOMINEE LKSHOR 0342   21     270/  7/ 10 1037.9F
$$




USA.gov is the U.S. government's official web portal to all federal, state and local government web resources and services.